CDT,Max TemperatureF,Mean TemperatureF,Min TemperatureF,Max Dew PointF,MeanDew PointF,Min DewpointF,Max Humidity, Mean Humidity, Min Humidity, Max Sea Level PressureIn, Mean Sea Level PressureIn, Min Sea Level PressureIn, Max VisibilityMiles, Mean VisibilityMiles, Min VisibilityMiles, Max Wind SpeedMPH, Mean Wind SpeedMPH, Max Gust SpeedMPH,PrecipitationIn, CloudCover, Events, WindDirDegrees
2012-8-1,98,82,65,68,63,60,81,56,30,29.95,29.86,29.75,10,10,2,38,8,48,0.11,1,Rain-Thunderstorm,194
2012-8-2,91,79,67,67,65,63,93,69,44,29.87,29.83,29.78,10,9,5,17,6,22,0.00,0,,37
2012-8-3,97,82,67,66,64,61,87,60,33,29.86,29.77,29.66,10,10,10,22,9,29,0.00,0,,167
2012-8-4,83,72,60,63,56,47,87,58,28,30.08,29.93,29.75,10,9,2,33,13,41,0.40,3,Rain-Thunderstorm,335
2012-8-5,84,69,54,56,53,49,93,62,31,30.26,30.17,30.09,10,10,10,14,5,17,0.00,0,,254
2012-8-6,95,78,60,63,57,55,84,56,28,30.10,30.00,29.92,10,10,10,21,9,26,0.00,0,,174
2012-8-7,98,81,63,62,59,55,90,59,27,29.97,29.92,29.89,10,10,10,20,4,25,0.00,0,,65
2012-8-8,97,81,64,68,63,57,81,54,27,29.99,29.91,29.84,10,10,2,29,8,38,0.07,1,Rain-Thunderstorm,286
2012-8-9,88,75,61,63,56,50,93,61,29,30.08,30.04,29.99,10,10,10,21,10,24,0.00,1,,360
2012-8-10,82,67,51,53,50,46,89,60,30,30.14,30.09,30.04,10,10,10,13,5,17,0.00,0,,65
2012-8-11,80,67,53,59,53,49,89,64,39,30.09,30.00,29.89,10,10,10,15,8,20,0.02,2,Rain,144
2012-8-12,75,68,61,61,57,55,84,71,57,30.03,29.92,29.85,10,10,10,24,13,30,T,7,,312
2012-8-13,83,72,60,55,52,49,84,58,31,30.14,30.07,30.00,10,10,10,16,8,21,0.00,3,,1
2012-8-14,85,71,56,63,58,51,80,62,44,30.02,29.91,29.79,10,10,10,20,10,24,0.04,2,Rain,193
2012-8-15,92,77,62,66,60,53,84,61,38,29.90,29.75,29.66,10,10,10,31,16,41,0.00,2,,191
2012-8-16,77,64,50,57,46,37,78,53,27,30.13,30.05,29.91,10,10,9,23,12,30,0.01,2,Rain-Thunderstorm,328
2012-8-17,80,62,44,46,42,39,92,58,23,30.16,30.11,30.02,10,10,10,13,4,17,0.00,0,,230
2012-8-18,72,60,48,53,48,40,96,71,46,30.08,30.01,29.94,10,9,2,28,10,36,0.30,5,Rain-Thunderstorm,115
2012-8-19,81,63,45,52,47,42,100,64,28,30.12,30.07,29.98,10,5,0,10,3,14,0.00,1,Fog,270
2012-8-20,86,69,51,54,49,45,89,58,27,30.02,29.97,29.92,10,10,10,13,3,16,0.00,1,,32
2012-8-21,93,74,54,57,52,49,86,56,25,30.00,29.95,29.88,10,10,10,16,8,25,0.00,0,,159
2012-8-22,93,79,64,58,53,48,60,46,31,29.91,29.87,29.81,10,10,10,28,15,36,0.00,0,,192
2012-8-23,89,80,70,67,61,50,84,64,44,29.85,29.82,29.79,10,10,10,25,13,32,0.00,0,,193
2012-8-24,82,72,61,66,64,60,93,74,54,29.88,29.83,29.79,10,7,2,22,10,28,0.04,6,Rain,164
2012-8-25,79,69,59,65,63,61,100,81,62,29.94,29.86,29.78,10,8,0,14,5,18,0.00,7,Fog-Rain,130
2012-8-26,89,74,59,66,62,59,100,70,39,30.06,29.98,29.92,10,4,0,13,4,20,0.00,2,Fog,355
2012-8-27,92,73,54,65,60,55,100,69,38,30.17,30.09,30.03,10,5,0,17,6,22,0.00,0,Fog,169
2012-8-28,99,83,67,64,59,55,81,54,26,30.06,29.95,29.85,10,10,10,30,14,37,0.00,0,,192
2012-8-29,102,86,69,54,50,46,53,35,17,29.87,29.81,29.74,10,10,10,29,16,35,0.00,0,,198
2012-8-30,102,85,68,59,53,51,57,38,19,29.92,29.82,29.77,10,10,10,23,12,28,0.00,0,,209
2012-8-31,95,76,56,63,58,53,93,61,28,30.01,29.96,29.92,10,10,10,12,5,16,0.00,0,,54